Tracking 27122 objects as of 24-Mar-2023
HD Live streaming from Space Station
objects crossing your sky now

STARLINK-4600

Track STARLINK-4600 now!
10-day predictions
STARLINK-4600 is classified as:


NORAD ID: 53628
Int'l Code: 2022-104AS
Perigee: 546.0 km
Apogee: 547.3 km
Inclination: 53.2 °
Period: 95.4 minutes
Semi major axis: 6917 km
RCS: Unknown
Launch date: August 28, 2022
Source: United States (US)
Launch site: AIR FORCE EASTERN TEST RANGE (AFETR)
Your satellite tracking list
Your tracking list is empty




NASA's NSSDC Master Catalog

Two Line Element Set (TLE):
1 53628U 22104AS  23083.20423746  .00105052  00000-0  65066-2 0  9995
2 53628  53.2172  48.6575 0000963 112.2875 247.8219 15.08923505 31808
Source of the keplerian elements: AFSPC